Weather Roundup
Issued by NWS Chicago, IL

Home | Current Version | Previous Version | Graphics & Text | Print | Product List | Glossary On
Versions: 1 2 3 4 5 6 7 8 9 10 11 12 13 14 15 16 17 18 19 20 21 22 23 24 25 26 27 28 29 30 31 32 33 34 35 36 37 38 39 40 41 42 43 44 45 46 47 48 49 50
000
NZUS59 KLOT 170608
HRRLOT

CHICAGO AREA WEATHER ROUNDUP
NATIONAL WEATHER SERVICE CHICAGO/ROMEOVILLE IL
1200 AM CST TUE JAN 17 2017

NOTE: "FAIR" INDICATES FEW OR NO CLOUDS BELOW 12,000 FEET WITH NO
SIGNIFICANT WEATHER AND/OR OBSTRUCTIONS TO VISIBILITY.

* THESE STATIONS ARE NOT UNDER NWS QUALITY CONTROL. THEY ALSO MAY NOT
  REPORT WEATHER SUCH AS PRECIPITATION OR FOG.

ILZ005-006-012>014-019>023-170700-
NORTHEAST ILLINOIS

CITY           SKY/WX    TMP DP  RH WIND       PRES   REMARKS
OHARE          DRZL/FOG  37  37 100 NE7       29.82F VSB 3/4
6HR MIN TEMP:  36; 6HR MAX TEMP:  37; 6HR PCP:  0.20;

MIDWAY         DRZL/FOG  37  36  96 N6        29.82F VSB 3/4
6HR MIN TEMP:  36; 6HR MAX TEMP:  39; 6HR PCP:  0.14;

AURORA         CLOUDY    38  37  97 E7        29.79F FOG
6HR MIN TEMP:  37; 6HR MAX TEMP:  38; 6HR PCP:  0.25;

LANSING*       DRIZZLE   42  42 100 E6        29.82F
JOLIET*        FOG       43  43 100 E3        29.80F VSB 1/4
WAUKEGAN       FOG       37  36  96 E9        29.84F VSB 1/4
6HR MIN TEMP:  36; 6HR MAX TEMP:  37; 6HR PCP:  0.26;

DUPAGE AIRPORT CLOUDY    37  35  92 NE8       29.79F FOG
6HR MIN TEMP:  36; 6HR MAX TEMP:  37; 6HR PCP:  0.15;

WHEELING       CLOUDY    37  37 100 E5        29.85F FOG
6HR MIN TEMP:  36; 6HR MAX TEMP:  37; 6HR PCP:  0.18;

KANKAKEE*      RAIN      47  46  98 SE12      29.80F VSB 1/2
MORRIS*        FOG       38  37  98 NE6       29.77F VSB 1/4
LEWIS AIRPORT* FOG       38  38 100 NE7       29.80F VSB 1/4
NORTHERLY ISL    N/A     37  36  96 N2          N/A
$$

WIZ051-052-058>065-066-070>072-170700-
SOUTHEAST WISCONSIN

CITY           SKY/WX    TMP DP  RH WIND       PRES   REMARKS
MILWAUKEE      DRZL/FOG  37  35  92 NE7       29.88F VSB 1
6HR MIN TEMP:  36; 6HR MAX TEMP:  37; 6HR PCP:  0.19;

KENOSHA*       FOG       37  36  96 E12       29.85F VSB 3/4
RACINE*        MIX PCPN  37  35  92 E7        29.88F VSB 1/2
WAUKESHA       FOG       32  32 100 NE8       29.87F VSB 1   WCI  25
WEST BEND      LGT RAIN  34  34 100 E7        29.89F VSB 1   WCI  28
$$

INZ001>003-010>013-019-020-170700-
NORTHWEST INDIANA

CITY           SKY/WX    TMP DP  RH WIND       PRES   REMARKS
GARY*          LGT RAIN  45  45  99 SE8       29.83F
6HR MIN TEMP:  39; 6HR MAX TEMP:  45; 6HR PCP:  0.11;

MICHIGAN CITY* NOT AVBL
RENSSELAER*    NOT AVBL
VALPARAISO     FOG       40  40 100 E9        29.86F VSB 1/4
$$

LMZ740>746-170700-
SOUTHERN LAKE MICHIGAN

STATION/POSITION TIME  SKY/WX   TEMP WIND        PRES    VSBY
                                AIR  DIR/SP/G
                 (UTC)          (F)  (DEG/KT/KT) (MB)    (MI)
HARRISON CRIB    0540            38   70/  4/  4   N/A
BURNHAM HARBOR   0600            37   10/  2/  3   N/A
CALUMET HARBOR   0548                170/  4/  6   N/A
BURNS HARBOR     0540            46  140/ 13/ 20 1011.2F
MICHIGAN CITY    0500            42  120/ 12/ 14   N/A
$$

ABBREVIATIONS USED IN REMARKS
   TC - TEMPERATURE IN CELSIUS
  WCI - WIND CHILL INDEX
   HX - HEAT INDEX
  VSB - VISIBILITY
$$




USA.gov is the U.S. government's official web portal to all federal, state and local government web resources and services.